Погода в Коростелях

Россия / Псковская область     56°34′49″N   29°50′51″E
темп.,
°C
ветер,
м/с
пор.,
м/с
влажн.,
%
обл.,
%
осадки,
мм/ч
давл.,
гПа
погр.,
м
6 мая, чт
чт600:00+7юв2399100 4.1 100080
03:00+8ююв159997 8.9 997186
06:00+8ю3899100 0.3 995588
09:00+6з5896100 6.8 994854
12:00+7з4893100 3.0 996931
15:00+7зюз61083100 4.3 9981207
18:00+6зюз6128882 1.1 10001245
21:00+4юз5129043 1.4 1002950
7 мая, пт
пт700:00+4юз6128818 0.1 10031172
03:00+3юз514916 0.1 10041021
06:00+3ююз5149042 0.0 1005668
09:00+6юз698099 0.1 1005990
12:00+8юз586981 0.3 10061360
15:00+10юз475365 0.5 10061635
18:00+11ю2457100 0.0 10051372
21:00+7вюв2788100 0.4 1004218
8 мая, сб
сб800:00+7ю5995100 2.8 1001739
03:00+6ю2799100 3.3 1000416
06:00+6юз2796100 0.4 999427
09:00+4зсз4697100 0.8 1001685
12:00+3зсз51097100 0.8 1002699
15:00+3з61297100 3.3 1004790
18:00+4сз51195100 0.4 1007857
21:00+3з399670 0.4 1009452
9 мая, вс
вс900:00+2з4129617 0.1 1011557
03:00+1з413955 0.1 1014472
06:000з412945 0.0 1017390
09:00+5з48771 0.0 1019599
12:00+10з464233 0.0 10211625
15:00+12зюз463694 0.0 10212025
18:00+11ююз364979 0.0 10211850
21:00+6ююз248045 0.1 102364
10 мая, пн
пн1000:00+4ю398454 0.0 1024182
03:00+4ююз3127969 0.0 1024294
06:00+6ююз41377100 0.0 1024396
09:00+9ююз41270100 0.0 1024486
12:00+15ююз57535 0.0 1025949
15:00+18ююз57495 0.0 10241326
18:00+17ююз475720 0.0 10241200
21:00+11ююв3108493 0.0 1025257